Regional Weather Roundup
Issued by NWS

Home | Current Version | Previous Version | Graphics & Text | Print | Product List | Glossary On
Versions: 1 2 3 4 5 6 7 8 9 10 11 12 13 14 15 16 17 18 19 20 21 22 23 24 25 26 27
000
ASUS45 KTFX 152110
RWRMT
MONTANA REGIONAL WEATHER ROUNDUP
NATIONAL WEATHER SERVICE GREAT FALLS MT
200 PM MST MON JAN 15 2018

NOTE: "FAIR" INDICATES FEW OR NO CLOUDS BELOW 12000 FEET WITH NO
SIGNIFICANT WEATHER AND/OR OBSTRUCTIONS TO VISIBILITY.

MTZ001>007-043-152200-
WEST OF THE DIVIDE

CITY           SKY/WX    TMP DP  RH WIND       PRES   REMARKS
KALISPELL      FAIR      37  30  75 CALM      30.38F
MISSOULA       FAIR      39  26  59 E18       30.36F WCI  30
BUTTE          PTSUNNY   30  22  72 SE8       30.38F WCI  22
MULLAN PASS    FAIR      31  30  96 SE9       30.23F WCI  23
ANACONDA         N/A     34  25  69 SE8       30.38F WCI  27
DEER LODGE       N/A     36  28  75 S9        30.39F WCI  29
EUREKA           N/A     36  27  69 MISG      30.43F
HAMILTON         N/A     43  30  61 NE5       30.35F
RONAN            N/A     32  30  93 N6        30.39F FOG     WCI  26
$$

MTZ008-052>055-152200-
SOUTHWEST MONTANA

CITY           SKY/WX    TMP DP  RH WIND       PRES   REMARKS
BOZEMAN        FAIR      30  23  75 W3        30.46S
DILLON         CLOUDY    31  24  75 CALM      30.39F
ENNIS          CLOUDY    30  25  80 SW5       30.44F
W YELLOWSTONE  FAIR      30  10  43 CALM      30.35F
THREE FORKS      N/A     34  25  70 S1        30.39F
$$

MTZ009-010-012-014-046-048-049-054-152200-
EAST SLOPES AND CENTRAL MONTANA

CITY           SKY/WX    TMP DP  RH WIND       PRES   REMARKS
CUT BANK       CLOUDY    13  10  88 SE16      30.43F WCI  -3
GREAT FALLS    FAIR      19  14  81 E8        30.47F WCI   9
MALMSTROM AFB  FLURRIES   8   7  95 NE6       30.50F WCI  -2
HELENA           N/A    N/A N/A N/A MISG      30.45F
AUGUSTA        PTSUNNY   23  24 100 SE9       30.41F WCI  13
BOWMANS CRNR   FAIR      25  22  85 S7        30.40F WCI  18
CHOTEAU          N/A     25  21  86 S12       30.46F WCI  14
FAIRFIELD      CLOUDY    22  18  83 SE10      30.44F WCI  11
POWER          FAIR      14   9  81 SE6       30.46F WCI   5
RAYNESFORD     FAIR      21  18  90 SE13      30.46F WCI   8
ULM            FAIR      27  22  82 N5        30.47F
WHITE SULPHUR    N/A     21  16  79 VRB7      30.43F WCI  13
$$

MTZ011-013-016-021-045-047-050-051-152200-
NORTH CENTRAL MONTANA

CITY           SKY/WX    TMP DP  RH WIND       PRES   REMARKS
HAVRE          FAIR     -14 -16  91 CALM      30.65F
LEWISTOWN      FAIR      16   6  65 E7        30.48F WCI   6
N BAR RANCH    FAIR       9   3  78 CALM      30.52F
CHINOOK          N/A     -8 -11  84 E5        30.68F
DENTON         FAIR       7   5  90 MISG      30.49F
GRASS RANGE    FAIR      10   1  67 SE5       30.50F
STANFORD       FAIR      17  16  95 SE5       30.45F
WINIFRED       FAIR      -3  -6  84 E7        30.52F WCI -16
$$

MTZ017>020-022>027-061-062-152200-
NORTHEAST MONTANA

CITY           SKY/WX    TMP DP  RH WIND       PRES   REMARKS
GLASGOW        FAIR     N/A N/A N/A E10       30.78F
GLENDIVE       FAIR      -5 -14  65 S7        30.79F WCI -19
MALTA          CLOUDY   -11 -17  77 E9        30.75F WCI -29
SIDNEY         FAIR       0 -12  57 CALM      30.85F
WOLF POINT     FAIR      -5 -16  59 NE5       30.85F
PLENTYWOOD       N/A     -4 -15  59 CALM      30.79F
POPLAR           N/A     -9 -18  64 W3        30.85F
$$

MTZ028>42-056>058-152200-
SOUTHCENTRAL AND SOUTHEAST MONTANA

CITY           SKY/WX    TMP DP  RH WIND       PRES   REMARKS
BAKER          FAIR      -8 -14  74 W7        30.72F WCI -23
BILLINGS       FAIR       6  -2  69 N5        30.60F
LIVINGSTON     CLOUDY    21  18  88 E12       30.48F WCI   9
MILES CITY     FAIR      -7 -11  83 S7        30.76F WCI -21
BIG TIMBER     CLOUDY    18  14  86 E3        30.54S
FORSYTH          N/A     -9 -15  77 NE7       30.73F WCI -24
HARLOWTON      FLURRIES  12  10  92 SE8       30.53F WCI   1
LAUREL           N/A      7   0  72 NE8       30.62F WCI  -6
ROUNDUP          N/A     13  -2  51 CALM      30.46F
$$

REGIONAL REPORTS...DAKOTAS

CITY           SKY/WX    TMP DP  RH WIND       PRES   REMARKS
WILLISTON      FAIR      -6 -15  65 W8        30.84F WCI -21
MINOT          FAIR      -5 -15  62 NW14      30.82F WCI -25
DICKINSON      FAIR      -4 -14  62 NW13      30.72F WCI -23
BEACH          FAIR      -6 -15  65 NW9       30.77F WCI -22
CROSBY         FAIR      -6 -15  65 W5        30.83F
TIOGA          FAIR      -8 -15  71 W8        30.79F WCI -23
BISMARCK       FAIR      -4 -15  59 NW18      30.81S WCI -26
GRAND FORKS    BLWGSNOW  -9 -14  78 N28G36    30.74R VSB 1/2 WCI -37
FARGO          HAZE     -10 -15  78 N18       30.71S VSB 1   WCI -34
BUFFALO SD       N/A     -3 -12  65 NW16      30.64R WCI -24
RAPID CITY     FAIR       4  -6  63 N22G32    30.66S WCI -18
$$

REGIONAL REPORTS...WYOMING/IDAHO/WASHINGTON

CITY           SKY/WX    TMP DP  RH WIND       PRES   REMARKS
GILLETTE         N/A      3  -5  69 NW3       30.58F
SHERIDAN       FAIR       9   0  67 CALM      30.60F
BUFFALO WY     FAIR      10  -1  61 SE3       30.53S
CODY           PTSUNNY   24  17  74 CALM      30.49F
YELLOWSTONE LA   N/A     25  16  68 CALM      30.35F
IDAHO FALLS    FAIR      39  27  62 N15       30.34F WCI  31
SALMON         CLOUDY    31  27  85 CALM      30.41F
BOISE          FAIR      45  33  63 VRB3      30.29F
SPOKANE        FAIR      41  33  73 NE9       30.21F
$$

REGIONAL REPORTS...ALBERTA

CITY           SKY/WX    TMP DP  RH WIND       PRES   REMARKS
CALGARY        MOSUNNY   23  18  80 S17       30.27F HAZE    WCI   9
CARDSTON         N/A     27  19  74 MISG        N/A
EDMONTON       MOSUNNY   19  12  73 S18G29    30.33F WCI   4
FORT MCMURRAY  SUNNY     12   0  57 SE13      30.38F WCI  -3
HIGH LEVEL     PTCLDY    10   3  72 S7        30.13F WCI   0
LETHBRIDGE     PTSUNNY   23  18  80 S14G26    30.39F WCI  11
LLOYDMINSTER   MOSUNNY    1 -11  55 S12G17    30.53F WCI -15
MEDICINE HAT   MOSUNNY   -2  -8  78 N3        30.56F
ONEFOUR          N/A     -8 -15  71 E13         N/A  WCI -28
PEACE RIVER    MOSUNNY   16   9  73 SW7       30.15F WCI   6
PINCHER CREEK  SUNNY     23  21  93 NE3       30.31F
$$

REGIONAL REPORTS...SASKATCHEWAN

CITY           SKY/WX    TMP DP  RH WIND       PRES   REMARKS
CORONACH         N/A     -4 -15  59 S8          N/A  WCI -19
CYPRESS HILLS    N/A      1 -13  51 S10         N/A  WCI -14
ESTEVAN        MOSUNNY   -4 -15  59 W7        30.82F WCI -18
MOOSE JAW        N/A      0 -11  60 S10         N/A  WCI -17
PRINCE ALBERT  PTSUNNY   -8 -17  65 SW6       30.79F WCI -21
REGINA         MOSUNNY   -2 -11  65 S9        30.80F WCI -18
ROCKGLEN         N/A     -4 -13  65 S14         N/A  WCI -24
SASKATOON      MOSUNNY    0 -11  60 S14       30.75F WCI -19
SWIFT CURRENT  SUNNY      3 -11  51 S13       30.61F WCI -14
VAL MARIE        N/A     -9 -18  64 S1          N/A
$$




USA.gov is the U.S. government's official web portal to all federal, state and local government web resources and services.